Weather reports worldwide

Advertisment
S. Maria Di Leuca, Italy (16360): temperature & dewpoint: 20.05.2019 20:00:00 - 26.05.2019 20:00:00 (CEST)S. Maria Di Leuca, Italy (16360): wind speed: 20.05.2019 20:00:00 - 26.05.2019 20:00:00 (CEST)S. Maria Di Leuca, Italy (16360): wind direction: 20.05.2019 20:00:00 - 26.05.2019 20:00:00 (CEST)S. Maria Di Leuca, Italy (16360): reduced air pressure: 20.05.2019 20:00:00 - 26.05.2019 20:00:00 (CEST)S. Maria Di Leuca, Italy (16360): visibility: 20.05.2019 20:00:00 - 26.05.2019 20:00:00 (CEST)S. Maria Di Leuca, Italy (16360): sunshine duration: 20.05.2019 20:00:00 - 26.05.2019 20:00:00 (CEST)
Date & Time tt [°C] td [°C] ff [km/h] ff [kn] dd ppp [hPa] vv [km] sd [min]
26.05.2019 20:00:00 - - - - - - - -
26.05.2019 19:00:00 18,4 16,2 16 9 E 1012,5 12 0
26.05.2019 18:00:00 18,8 17,1 15 8 E 1013,0 10 0
26.05.2019 17:00:00 19,8 17,9 11 6 ESE 1013,1 10 12
26.05.2019 16:00:00 20,8 15,6 11 6 E 1013,2 15 0
26.05.2019 15:00:00 20,8 16,2 11 6 E 1013,2 10 30
26.05.2019 14:00:00 21,0 17,2 9 5 SE 1013,3 10 0
26.05.2019 13:00:00 20,4 17,6 11 6 E 1013,5 15 30
26.05.2019 12:00:00 20,6 16,0 11 6 E 1013,5 10 42
26.05.2019 11:00:00 20,0 16,0 9 5 ESE 1013,6 10 18
26.05.2019 10:00:00 18,6 15,7 8 4 E 1013,9 12 0
26.05.2019 09:00:00 17,8 14,9 8 4 SE 1014,1 12 0
26.05.2019 08:00:00 17,6 14,7 8 4 SSE 1014,1 10 0
26.05.2019 07:00:00 16,8 13,7 8 4 SSE 1014,3 10 0
26.05.2019 06:00:00 17,0 13,9 8 4 ESE 1014,2 10 0
26.05.2019 05:00:00 17,0 14,1 9 5 S 1014,7 10 -
26.05.2019 04:00:00 17,0 14,1 9 5 SE 1015,1 10 -
26.05.2019 03:00:00 17,0 14,1 9 5 NNE 1015,1 10 -
26.05.2019 02:00:00 17,0 14,1 5 3 ENE 1015,2 10 -
26.05.2019 01:00:00 17,0 13,9 8 4 SW 1015,5 10 -
26.05.2019 00:00:00 17,2 14,3 11 6 SSW 1015,7 10 -
25.05.2019 23:00:00 17,2 14,3 11 6 SSW 1015,6 10 -
25.05.2019 22:00:00 17,2 14,3 11 6 SSW 1015,2 10 -
25.05.2019 21:00:00 17,4 14,5 11 6 SSW 1014,5 10 0
25.05.2019 20:00:00 17,4 14,7 13 7 S 1014,5 10 0
25.05.2019 19:00:00 18,0 15,3 11 6 SSE 1014,3 10 30
25.05.2019 18:00:00 18,0 15,3 11 6 SSE 1014,3 10 60
25.05.2019 17:00:00 19,0 16,0 11 6 S 1014,4 10 60
25.05.2019 16:00:00 18,6 16,0 9 5 NE 1015,0 10 60
25.05.2019 15:00:00 19,0 16,8 9 5 S 1015,2 10 60
25.05.2019 14:00:00 19,0 16,4 9 5 S 1015,2 10 60
25.05.2019 13:00:00 18,4 15,7 13 7 NW 1015,2 10 60
25.05.2019 12:00:00 18,2 15,5 13 7 N 1015,3 10 60
25.05.2019 11:00:00 18,2 15,6 11 6 SE 1015,1 10 54
25.05.2019 10:00:00 18,2 15,6 11 6 SSE 1014,6 10 60
25.05.2019 09:00:00 18,0 15,4 9 5 SSE 1014,5 10 30
25.05.2019 08:00:00 17,4 14,9 9 5 SE 1014,5 10 48
25.05.2019 07:00:00 17,2 14,7 5 3 ESE 1013,8 10 0
25.05.2019 06:00:00 17,0 14,5 5 3 SE 1013,4 10 -
25.05.2019 05:00:00 17,4 14,9 5 3 E 1013,6 10 -
25.05.2019 04:00:00 17,4 14,9 8 4 NW 1012,9 10 -
25.05.2019 03:00:00 17,4 14,9 8 4 NW 1013,6 10 -
25.05.2019 02:00:00 17,6 16,0 11 6 W 1013,5 10 -
25.05.2019 01:00:00 17,6 16,0 8 4 W 1013,6 10 -
25.05.2019 00:00:00 17,6 16,0 11 6 WSW 1013,6 10 -
24.05.2019 23:00:00 17,6 16,0 9 5 WSW 1013,6 10 -
24.05.2019 22:00:00 17,8 16,1 9 5 WSW 1012,8 10 -
24.05.2019 21:00:00 17,8 16,1 8 4 WSW 1012,6 10 -
24.05.2019 20:00:00 18,0 16,2 0 0 N 1012,5 10 0
24.05.2019 19:00:00 18,6 16,8 8 4 SSW 1012,4 20 54
24.05.2019 18:00:00 18,6 16,9 8 4 S 1012,1 20 60
24.05.2019 17:00:00 19,4 17,2 9 5 SSE 1012,6 20 60
24.05.2019 16:00:00 19,0 17,1 9 5 S 1012,7 20 60
24.05.2019 15:00:00 19,6 17,0 9 5 SW 1013,0 20 60
24.05.2019 14:00:00 18,2 16,5 13 7 S 1013,0 20 60
24.05.2019 13:00:00 19,8 17,0 11 6 SW 1013,2 20 60
24.05.2019 12:00:00 20,0 18,0 9 5 S 1013,2 20 60
24.05.2019 11:00:00 20,2 17,8 11 6 WNW 1013,1 20 60
24.05.2019 10:00:00 19,8 15,0 15 8 NW 1013,1 20 60
24.05.2019 09:00:00 18,4 15,3 13 7 NW 1013,2 20 60
24.05.2019 08:00:00 17,4 14,9 11 6 NW 1013,1 20 60
24.05.2019 07:00:00 16,8 14,3 9 5 NNW 1012,7 10 48
24.05.2019 06:00:00 16,0 13,5 15 8 NW 1012,4 10 0
24.05.2019 05:00:00 16,0 13,5 13 7 NW 1012,4 10 -
24.05.2019 04:00:00 16,0 13,5 13 7 NNW 1012,4 10 -
24.05.2019 03:00:00 16,0 14,0 13 7 NW 1012,4 10 -
24.05.2019 02:00:00 16,2 12,7 11 6 WNW 1012,7 10 -
24.05.2019 01:00:00 16,4 13,9 9 5 NNW 1012,8 10 -
24.05.2019 00:00:00 16,4 14,2 15 8 N 1012,8 10 -
23.05.2019 23:00:00 16,8 14,8 18 10 NNE 1013,0 10 -
23.05.2019 22:00:00 17,0 13,5 16 9 NNW 1013,2 10 -
23.05.2019 21:00:00 17,2 14,7 21 11 NNW 1013,2 10 -
23.05.2019 20:00:00 17,2 14,7 9 5 W 1013,4 10 0
23.05.2019 19:00:00 17,4 15,0 5 3 W 1013,6 10 0
23.05.2019 18:00:00 17,4 15,0 5 3 SW 1013,4 10 0
23.05.2019 17:00:00 17,4 15,0 4 2 SSW 1014,0 10 0
23.05.2019 16:00:00 17,4 15,0 4 2 SSW 1013,8 10 0
23.05.2019 15:00:00 17,4 15,0 5 3 WSW 1014,0 10 0
23.05.2019 14:00:00 17,4 15,2 13 7 W 1014,2 10 0
23.05.2019 13:00:00 18,2 15,8 9 5 SW 1014,6 10 18
23.05.2019 12:00:00 18,0 16,2 8 4 SSW 1014,6 10 12
23.05.2019 11:00:00 18,0 16,2 13 7 W 1014,6 10 12
23.05.2019 10:00:00 17,2 14,8 9 5 WSW 1013,8 10 60
23.05.2019 09:00:00 16,6 13,1 8 4 SW 1013,7 10 60
23.05.2019 08:00:00 15,8 13,3 0 0 N 1013,5 10 60
23.05.2019 07:00:00 15,6 13,4 9 5 N 1013,4 10 24
23.05.2019 06:00:00 15,8 13,3 9 5 NW 1013,5 10 0
23.05.2019 05:00:00 15,8 13,5 4 2 W 1013,4 10 -
23.05.2019 04:00:00 15,8 13,5 4 2 NNE 1013,4 10 -
23.05.2019 03:00:00 16,0 13,3 9 5 NW 1014,2 10 -
23.05.2019 02:00:00 16,8 14,3 8 4 W 1014,3 10 -
23.05.2019 01:00:00 16,8 14,3 8 4 NW 1014,6 12 -
23.05.2019 00:00:00 16,8 14,3 5 3 WNW 1014,8 10 -
22.05.2019 23:00:00 16,8 14,3 9 5 W 1014,6 12 -
22.05.2019 22:00:00 17,0 14,5 9 5 W 1014,4 12 -
22.05.2019 21:00:00 17,4 14,9 11 6 W 1014,3 10 0
22.05.2019 20:00:00 17,6 15,8 9 5 SW 1014,3 15 12
22.05.2019 19:00:00 18,0 16,3 9 5 SSW 1014,4 10 60
22.05.2019 18:00:00 18,2 15,6 8 4 WSW 1014,5 10 60
22.05.2019 17:00:00 18,6 13,0 9 5 SSW 1014,8 10 60
22.05.2019 16:00:00 19,0 10,3 11 6 SSW 1015,3 10 60
22.05.2019 15:00:00 18,8 7,6 9 5 SW 1015,3 10 60
22.05.2019 14:00:00 18,8 13,7 9 5 WSW 1015,5 10 60
22.05.2019 13:00:00 18,8 12,1 9 5 WSW 1016,0 10 60
22.05.2019 12:00:00 18,0 13,1 13 7 WSW 1016,0 10 60
22.05.2019 11:00:00 17,8 13,1 13 7 WSW 1016,1 10 60
22.05.2019 10:00:00 17,4 14,3 8 4 WSW 1016,1 10 60
22.05.2019 09:00:00 17,2 15,0 11 6 W 1016,0 10 60
22.05.2019 08:00:00 17,0 14,5 9 5 WSW 1016,0 10 60
22.05.2019 07:00:00 16,0 13,5 8 4 WNW 1015,5 10 6
22.05.2019 06:00:00 16,8 14,3 8 4 NW 1015,3 10 -
22.05.2019 05:00:00 17,0 14,8 8 4 NNW 1015,1 10 -
22.05.2019 04:00:00 17,0 14,7 8 4 NNW 1015,3 10 -
22.05.2019 03:00:00 - - - - - - - -
22.05.2019 02:00:00 16,8 14,1 11 6 W 1015,5 10 -
22.05.2019 01:00:00 17,0 14,3 8 4 W 1015,7 10 -
22.05.2019 00:00:00 17,0 14,3 9 5 W 1015,9 10 -
21.05.2019 23:00:00 17,2 14,5 11 6 WSW 1015,7 10 -
21.05.2019 22:00:00 17,4 14,9 8 4 WSW 1015,5 10 -
21.05.2019 21:00:00 17,8 16,0 8 4 WSW 1015,2 10 -
21.05.2019 20:00:00 17,8 16,1 5 3 WSW 1015,2 15 30
21.05.2019 19:00:00 18,2 15,6 8 4 WSW 1014,8 10 60
21.05.2019 18:00:00 18,4 15,8 9 5 SW 1014,9 20 60
21.05.2019 17:00:00 19,0 17,0 11 6 SW 1014,8 20 60
21.05.2019 16:00:00 19,2 17,0 13 7 SSW 1014,9 20 60
21.05.2019 15:00:00 19,6 17,2 15 8 SSW 1014,9 20 60
21.05.2019 14:00:00 19,8 14,8 9 5 SSW 1014,9 20 60
21.05.2019 13:00:00 19,4 15,3 11 6 SW 1014,9 20 60
21.05.2019 12:00:00 18,8 16,6 11 6 SSW 1014,9 20 60
21.05.2019 11:00:00 18,8 16,4 8 4 SW 1014,1 20 60
21.05.2019 10:00:00 17,8 15,1 9 5 S 1014,0 20 60
21.05.2019 09:00:00 17,4 14,5 11 6 SSE 1013,9 20 60
21.05.2019 08:00:00 17,4 14,3 5 3 SE 1013,9 20 60
21.05.2019 07:00:00 15,8 13,3 5 3 NNE 1013,0 10 6
21.05.2019 06:00:00 16,2 13,7 4 2 NNE 1013,0 10 -
21.05.2019 05:00:00 16,4 13,3 0 0 N 1013,2 10 -
21.05.2019 04:00:00 16,4 13,3 0 0 N 1013,2 10 -
21.05.2019 03:00:00 16,4 13,3 0 0 N 1013,6 10 -
21.05.2019 02:00:00 16,4 13,3 0 0 N 1013,6 10 -
21.05.2019 01:00:00 16,6 13,5 8 4 W 1014,0 10 -
21.05.2019 00:00:00 16,6 13,5 5 3 SSW 1013,8 10 -
20.05.2019 23:00:00 16,6 14,1 9 5 SSW 1013,6 10 -
20.05.2019 22:00:00 17,0 14,5 13 7 SSW 1013,2 10 -
20.05.2019 21:00:00 17,0 14,5 8 4 S 1012,9 10 -
20.05.2019 20:00:00 17,4 15,0 5 3 S 1012,9 10 0

tt = temperature
td = dewpoint
ff = wind speed
dd = wind direction
ppp = reduced air pressure
vv = visibility
sd = sunshine duration

Next stations